Time,TemperatureF,DewpointF,PressureIn,WindDirection,WindDirectionDegrees,WindSpeedMPH,WindSpeedGustMPH,Humidity,HourlyPrecipIn,Conditions,Clouds,dailyrainin,SoftwareType,DateUTC
2013-02-11 00:04:00,31.3,24.0,30.33,SSE,166,0.0,0.0,73,0.00,,,0.00,weatherlink.com 1.10,2013-02-11 05:04:00,
2013-02-11 00:19:00,31.4,23.0,30.32,South,174,0.0,3.0,72,0.00,,,0.00,weatherlink.com 1.10,2013-02-11 05:19:00,
2013-02-11 00:34:00,31.4,23.0,30.32,SSE,167,0.0,1.0,71,0.00,,,0.00,weatherlink.com 1.10,2013-02-11 05:34:00,
2013-02-11 00:49:00,31.3,23.0,30.31,SSE,158,0.0,2.0,71,0.00,,,0.00,weatherlink.com 1.10,2013-02-11 05:49:00,
2013-02-11 01:04:00,31.2,23.0,30.30,South,176,0.0,3.0,71,0.00,,,0.00,weatherlink.com 1.10,2013-02-11 06:04:00,
2013-02-11 01:19:00,31.2,22.0,30.29,SE,142,1.0,1.0,70,0.00,,,0.00,weatherlink.com 1.10,2013-02-11 06:19:00,
2013-02-11 01:34:00,31.3,23.0,30.29,SE,142,0.0,0.0,70,0.00,,,0.00,weatherlink.com 1.10,2013-02-11 06:34:00,
2013-02-11 01:49:00,31.3,23.0,30.30,SE,142,0.0,1.0,70,0.00,,,0.00,weatherlink.com 1.10,2013-02-11 06:49:00,
2013-02-11 02:04:00,31.4,22.0,30.28,SE,143,0.0,0.0,69,0.00,,,0.00,weatherlink.com 1.10,2013-02-11 07:04:00,
2013-02-11 02:19:00,31.5,23.0,30.27,SE,145,0.0,0.0,70,0.00,,,0.00,weatherlink.com 1.10,2013-02-11 07:19:00,
2013-02-11 02:34:00,31.6,23.0,30.26,SE,145,0.0,0.0,71,0.00,,,0.00,weatherlink.com 1.10,2013-02-11 07:34:00,
2013-02-11 02:49:00,31.7,24.0,30.26,SSE,152,0.0,0.0,73,0.00,,,0.00,weatherlink.com 1.10,2013-02-11 07:49:00,
2013-02-11 03:04:00,31.8,24.0,30.24,SSE,152,0.0,0.0,74,0.00,,,0.00,weatherlink.com 1.10,2013-02-11 08:04:00,
2013-02-11 03:19:00,32.1,25.0,30.23,SSE,152,0.0,0.0,75,0.00,,,0.00,weatherlink.com 1.10,2013-02-11 08:19:00,
2013-02-11 03:34:00,32.4,26.0,30.24,SSE,152,0.0,0.0,76,0.00,,,0.00,weatherlink.com 1.10,2013-02-11 08:34:00,
2013-02-11 03:49:00,32.8,26.0,30.22,South,174,0.0,0.0,77,0.00,,,0.00,weatherlink.com 1.10,2013-02-11 08:49:00,
2013-02-11 04:04:00,32.9,27.0,30.20,South,173,0.0,0.0,78,0.00,,,0.00,weatherlink.com 1.10,2013-02-11 09:04:00,
2013-02-11 04:20:00,33.0,27.0,30.20,South,173,0.0,0.0,79,0.00,,,0.00,weatherlink.com 1.10,2013-02-11 09:20:00,
2013-02-11 04:35:00,33.2,27.0,30.20,NE,51,0.0,0.0,79,0.00,,,0.00,weatherlink.com 1.10,2013-02-11 09:35:00,
2013-02-11 04:50:00,33.2,28.0,30.18,NE,53,0.0,0.0,80,0.00,,,0.00,weatherlink.com 1.10,2013-02-11 09:50:00,
2013-02-11 05:05:00,33.1,28.0,30.17,NE,53,0.0,0.0,81,0.00,,,0.00,weatherlink.com 1.10,2013-02-11 10:05:00,
2013-02-11 05:20:00,32.9,28.0,30.17,NE,52,0.0,0.0,81,0.00,,,0.00,weatherlink.com 1.10,2013-02-11 10:20:00,
2013-02-11 05:35:00,32.9,28.0,30.16,NE,49,0.0,0.0,83,0.00,,,0.00,weatherlink.com 1.10,2013-02-11 10:35:00,
2013-02-11 05:50:00,33.0,29.0,30.15,NE,49,0.0,0.0,84,0.00,,,0.00,weatherlink.com 1.10,2013-02-11 10:50:00,
2013-02-11 06:05:00,33.0,29.0,30.15,NE,49,0.0,0.0,85,0.00,,,0.00,weatherlink.com 1.10,2013-02-11 11:05:00,
2013-02-11 06:20:00,32.9,30.0,30.13,NE,49,0.0,0.0,87,0.00,,,0.00,weatherlink.com 1.10,2013-02-11 11:20:00,
2013-02-11 06:35:00,33.1,30.0,30.12,NE,50,0.0,0.0,88,0.00,,,0.00,weatherlink.com 1.10,2013-02-11 11:35:00,
2013-02-11 06:50:00,33.5,31.0,30.11,NE,51,0.0,0.0,90,0.00,,,0.00,weatherlink.com 1.10,2013-02-11 11:50:00,
2013-02-11 07:05:00,34.1,32.0,30.09,NE,51,0.0,0.0,91,0.00,,,0.00,weatherlink.com 1.10,2013-02-11 12:05:00,
2013-02-11 07:20:00,34.4,32.0,30.08,NE,51,0.0,0.0,91,0.00,,,0.00,weatherlink.com 1.10,2013-02-11 12:20:00,
2013-02-11 07:35:00,34.7,33.0,30.07,NE,51,0.0,0.0,92,0.00,,,0.00,weatherlink.com 1.10,2013-02-11 12:35:00,
2013-02-11 07:50:00,35.1,33.0,30.06,NE,53,0.0,0.0,93,0.00,,,0.00,weatherlink.com 1.10,2013-02-11 12:50:00,
2013-02-11 08:05:00,35.6,34.0,30.04,NE,53,0.0,0.0,93,0.00,,,0.00,weatherlink.com 1.10,2013-02-11 13:05:00,
2013-02-11 08:20:00,35.7,34.0,30.03,NE,53,0.0,0.0,93,0.00,,,0.00,weatherlink.com 1.10,2013-02-11 13:20:00,
2013-02-11 08:35:00,35.4,34.0,30.03,NE,38,0.0,0.0,93,0.00,,,0.00,weatherlink.com 1.10,2013-02-11 13:35:00,
2013-02-11 08:50:00,34.9,33.0,30.02,NNE,19,2.0,3.0,93,0.00,,,0.00,weatherlink.com 1.10,2013-02-11 13:50:00,
2013-02-11 09:05:00,34.8,33.0,30.01,NW,323,0.0,4.0,94,0.00,,,0.00,weatherlink.com 1.10,2013-02-11 14:05:00,
2013-02-11 09:20:00,35.1,34.0,30.01,NNW,341,0.0,0.0,94,0.00,,,0.00,weatherlink.com 1.10,2013-02-11 14:20:00,
2013-02-11 09:35:00,35.5,34.0,30.00,NNW,341,0.0,0.0,94,0.00,,,0.00,weatherlink.com 1.10,2013-02-11 14:35:00,
2013-02-11 09:50:00,35.7,34.0,29.99,WNW,298,0.0,1.0,94,0.00,,,0.00,weatherlink.com 1.10,2013-02-11 14:50:00,
2013-02-11 10:05:00,35.8,34.0,29.97,WNW,298,0.0,0.0,94,0.00,,,0.00,weatherlink.com 1.10,2013-02-11 15:05:00,
2013-02-11 10:20:00,35.9,34.0,29.96,NW,316,0.0,0.0,94,0.00,,,0.00,weatherlink.com 1.10,2013-02-11 15:20:00,
2013-02-11 10:35:00,35.6,34.0,29.96,NW,305,0.0,1.0,94,0.00,,,0.00,weatherlink.com 1.10,2013-02-11 15:35:00,
2013-02-11 10:50:00,35.9,35.0,29.96,NW,304,0.0,0.0,95,0.00,,,0.00,weatherlink.com 1.10,2013-02-11 15:50:00,
2013-02-11 11:06:00,36.1,35.0,29.96,NW,305,0.0,0.0,95,0.00,,,0.00,weatherlink.com 1.10,2013-02-11 16:06:00,
2013-02-11 11:21:00,36.2,35.0,29.94,NW,312,0.0,0.0,95,0.00,,,0.00,weatherlink.com 1.10,2013-02-11 16:21:00,
2013-02-11 11:36:00,36.4,35.0,29.92,NW,314,0.0,0.0,95,0.00,,,0.00,weatherlink.com 1.10,2013-02-11 16:36:00,
2013-02-11 11:51:00,36.8,36.0,29.93,NW,314,0.0,0.0,95,0.00,,,0.00,weatherlink.com 1.10,2013-02-11 16:51:00,
2013-02-11 12:06:00,37.4,36.0,29.91,NW,314,0.0,0.0,95,0.00,,,0.00,weatherlink.com 1.10,2013-02-11 17:06:00,
2013-02-11 12:21:00,37.4,36.0,29.89,NW,314,0.0,0.0,95,0.00,,,0.00,weatherlink.com 1.10,2013-02-11 17:21:00,
2013-02-11 12:36:00,37.7,36.0,29.87,NW,314,0.0,0.0,95,0.00,,,0.00,weatherlink.com 1.10,2013-02-11 17:36:00,
2013-02-11 12:51:00,37.8,37.0,29.85,WNW,301,0.0,0.0,95,0.00,,,0.00,weatherlink.com 1.10,2013-02-11 17:51:00,
2013-02-11 13:06:00,38.1,37.0,29.84,WNW,300,0.0,0.0,95,0.00,,,0.00,weatherlink.com 1.10,2013-02-11 18:06:00,
2013-02-11 13:21:00,38.4,37.0,29.82,WNW,295,0.0,0.0,95,0.00,,,0.00,weatherlink.com 1.10,2013-02-11 18:21:00,
2013-02-11 13:51:00,38.9,38.0,29.81,WNW,294,0.0,0.0,95,0.00,,,0.00,weatherlink.com 1.10,2013-02-11 18:51:00,
2013-02-11 14:06:00,39.0,38.0,29.81,WNW,294,0.0,0.0,95,0.00,,,0.00,weatherlink.com 1.10,2013-02-11 19:06:00,
2013-02-11 14:21:00,39.6,38.0,29.80,WNW,294,0.0,0.0,95,0.00,,,0.00,weatherlink.com 1.10,2013-02-11 19:21:00,
2013-02-11 14:36:00,39.9,39.0,29.79,WNW,294,0.0,0.0,95,0.00,,,0.00,weatherlink.com 1.10,2013-02-11 19:36:00,
2013-02-11 14:51:00,40.3,39.0,29.79,WNW,294,0.0,0.0,95,0.00,,,0.00,weatherlink.com 1.10,2013-02-11 19:51:00,
2013-02-11 15:06:00,40.9,40.0,29.77,SSW,193,0.0,0.0,95,0.00,,,0.00,weatherlink.com 1.10,2013-02-11 20:06:00,
2013-02-11 15:21:00,41.1,40.0,29.76,South,172,0.0,1.0,95,0.00,,,0.00,weatherlink.com 1.10,2013-02-11 20:21:00,
2013-02-11 15:36:00,41.2,40.0,29.75,South,171,0.0,0.0,96,0.00,,,0.00,weatherlink.com 1.10,2013-02-11 20:36:00,
2013-02-11 15:51:00,41.2,40.0,29.73,SSE,165,0.0,1.0,96,0.00,,,0.00,weatherlink.com 1.10,2013-02-11 20:51:00,
2013-02-11 16:06:00,41.3,40.0,29.73,SSE,165,0.0,1.0,96,0.00,,,0.00,weatherlink.com 1.10,2013-02-11 21:06:00,
2013-02-11 16:21:00,41.2,40.0,29.72,SSE,165,0.0,1.0,96,0.00,,,0.00,weatherlink.com 1.10,2013-02-11 21:21:00,
2013-02-11 16:36:00,41.2,40.0,29.72,SSE,165,0.0,1.0,96,0.00,,,0.00,weatherlink.com 1.10,2013-02-11 21:36:00,
2013-02-11 16:52:00,41.2,40.0,29.71,SSE,165,0.0,1.0,96,0.00,,,0.00,weatherlink.com 1.10,2013-02-11 21:52:00,
2013-02-11 17:07:00,41.1,40.0,29.71,SSE,165,0.0,1.0,96,0.00,,,0.00,weatherlink.com 1.10,2013-02-11 22:07:00,
2013-02-11 17:22:00,40.9,40.0,29.71,SSE,165,0.0,1.0,96,0.00,,,0.00,weatherlink.com 1.10,2013-02-11 22:22:00,
2013-02-11 17:37:00,40.8,40.0,29.70,SSE,165,0.0,0.0,96,0.00,,,0.00,weatherlink.com 1.10,2013-02-11 22:37:00,
2013-02-11 17:52:00,40.9,40.0,29.69,SSE,165,0.0,0.0,96,0.00,,,0.00,weatherlink.com 1.10,2013-02-11 22:52:00,
2013-02-11 18:07:00,41.1,40.0,29.69,SSE,165,0.0,0.0,96,0.00,,,0.00,weatherlink.com 1.10,2013-02-11 23:07:00,
2013-02-11 18:22:00,41.0,40.0,29.69,SSE,165,0.0,0.0,96,0.01,,,0.01,weatherlink.com 1.10,2013-02-11 23:22:00,
2013-02-11 18:37:00,41.0,40.0,29.68,SSE,165,0.0,0.0,96,0.01,,,0.01,weatherlink.com 1.10,2013-02-11 23:37:00,
2013-02-11 18:52:00,40.8,40.0,29.68,SSE,165,0.0,0.0,96,0.02,,,0.02,weatherlink.com 1.10,2013-02-11 23:52:00,
2013-02-11 19:07:00,40.5,40.0,29.67,SSE,165,0.0,0.0,96,0.03,,,0.03,weatherlink.com 1.10,2013-02-12 00:07:00,
2013-02-11 19:22:00,40.3,39.0,29.67,SSE,165,0.0,0.0,96,0.02,,,0.03,weatherlink.com 1.10,2013-02-12 00:22:00,
2013-02-11 19:37:00,40.2,39.0,29.66,SSE,165,0.0,0.0,96,0.02,,,0.03,weatherlink.com 1.10,2013-02-12 00:37:00,
2013-02-11 19:52:00,40.0,39.0,29.66,SSE,165,0.0,0.0,96,0.02,,,0.04,weatherlink.com 1.10,2013-02-12 00:52:00,
2013-02-11 20:07:00,39.9,39.0,29.66,SSE,165,0.0,0.0,96,0.01,,,0.04,weatherlink.com 1.10,2013-02-12 01:07:00,
2013-02-11 20:22:00,39.8,39.0,29.66,SSE,165,0.0,0.0,96,0.01,,,0.04,weatherlink.com 1.10,2013-02-12 01:22:00,
2013-02-11 20:37:00,40.0,39.0,29.66,SSE,165,0.0,0.0,97,0.01,,,0.04,weatherlink.com 1.10,2013-02-12 01:37:00,
2013-02-11 20:52:00,40.2,39.0,29.66,SSE,165,0.0,0.0,97,0.01,,,0.05,weatherlink.com 1.10,2013-02-12 01:52:00,
2013-02-11 21:07:00,40.4,40.0,29.66,SSE,165,0.0,0.0,97,0.01,,,0.05,weatherlink.com 1.10,2013-02-12 02:07:00,
2013-02-11 21:22:00,40.4,40.0,29.66,SSE,165,0.0,0.0,97,0.01,,,0.05,weatherlink.com 1.10,2013-02-12 02:22:00,
2013-02-11 21:37:00,40.2,39.0,29.68,ENE,78,0.0,1.0,97,0.02,,,0.06,weatherlink.com 1.10,2013-02-12 02:37:00,
2013-02-11 21:52:00,40.7,40.0,29.69,ENE,77,0.0,0.0,97,0.01,,,0.06,weatherlink.com 1.10,2013-02-12 02:52:00,
2013-02-11 22:07:00,40.7,40.0,29.70,ENE,78,0.0,0.0,97,0.01,,,0.06,weatherlink.com 1.10,2013-02-12 03:07:00,
2013-02-11 22:22:00,40.1,39.0,29.70,ENE,78,0.0,0.0,97,0.01,,,0.06,weatherlink.com 1.10,2013-02-12 03:22:00,
2013-02-11 22:37:00,39.5,39.0,29.71,ENE,77,0.0,0.0,97,0.00,,,0.06,weatherlink.com 1.10,2013-02-12 03:37:00,
2013-02-11 22:52:00,40.3,40.0,29.70,North,349,0.0,1.0,97,0.01,,,0.07,weatherlink.com 1.10,2013-02-12 03:52:00,
2013-02-11 23:07:00,42.3,42.0,29.71,NNW,343,0.0,5.0,98,0.01,,,0.07,weatherlink.com 1.10,2013-02-12 04:07:00,
2013-02-11 23:22:00,42.3,42.0,29.71,NNE,30,0.0,4.0,97,0.01,,,0.07,weatherlink.com 1.10,2013-02-12 04:22:00,
2013-02-11 23:37:00,41.9,41.0,29.72,North,351,0.0,1.0,97,0.01,,,0.07,weatherlink.com 1.10,2013-02-12 04:37:00,
2013-02-11 23:52:00,41.5,41.0,29.71,NE,48,0.0,1.0,97,0.00,,,0.07,weatherlink.com 1.10,2013-02-12 04:52:00,